FW0532 Weather Reports


Display with metric or nautical units.
time (UTC)temp
F
wind
direction
speed
MPH
gust
MPH
rain 1hr
in
rain 24hr
in
rain mn
in
humidity
%
barometer
mb
20260902163821 91 225 2.0 9.0 0.00 0.00 0.00 65 1016.9
20260902162321 90 226 6.0 11.0 0.00 0.00 0.00 66 1017.1
20260902161320 90 199 4.0 10.0 0.00 0.00 0.00 66 1017.0
20260902160850 90 207 4.0 10.0 0.00 0.00 0.00 64 1016.9
20260902160350 90 196 4.0 10.0 0.00 0.00 0.00 66 1016.9
20260902155850 90 198 3.0 6.0 0.00 0.00 0.00 65 1016.8
20260902155349 89 116 2.0 6.0 0.00 0.00 0.00 64 1017.0
20260902154849 90 174 4.0 5.0 0.00 0.00 0.00 66 1017.0
20260902154349 90 187 1.0 5.0 0.00 0.00 0.00 68 1017.0
20260902153349 89 275 0.0 5.0 0.00 0.00 0.00 69 1017.0
20260902152849 88 186 0.0 5.0 0.00 0.00 0.00 68 1016.9
20260902152349 88 216 2.0 7.0 0.00 0.00 0.00 69 1017.0
20260902151849 88 178 3.0 7.0 0.00 0.00 0.00 71 1017.0
20260902151348 88 191 0.0 6.0 0.00 0.00 0.00 69 1017.0
20260902150848 87 186 2.0 6.0 0.00 0.00 0.00 70 1016.8
20260902150348 88 316 2.0 4.0 0.00 0.00 0.00 72 1016.9
20260902145848 88 187 1.0 5.0 0.00 0.00 0.00 70 1017.0
20260902145348 88 204 2.0 5.0 0.00 0.00 0.00 71 1017.0
20260902144847 88 233 0.0 4.0 0.00 0.00 0.00 72 1017.1
20260902143847 87 304 4.0 4.0 0.00 0.00 0.00 71 1017.0
20260902143347 86 231 1.0 4.0 0.00 0.00 0.00 74 1017.1
20260902142847 86 222 0.0 6.0 0.00 0.00 0.00 74 1017.1
20260902142347 86 208 0.0 6.0 0.00 0.00 0.00 73 1016.9
20260902141847 86 107 1.0 2.0 0.00 0.00 0.00 75 1017.0
20260902140847 85 287 0.0 3.0 0.00 0.00 0.00 78 1017.1
20260902140346 84 162 1.0 3.0 0.00 0.00 0.00 76 1016.9
20260902135346 83 157 2.0 3.0 0.00 0.00 0.00 77 1016.9
20260902134846 83 99 0.0 2.0 0.00 0.00 0.00 79 1016.9
20260902133345 81 223 0.0 4.0 0.00 0.00 0.00 83 1016.8
20260902132845 81 221 1.0 4.0 0.00 0.00 0.00 82 1016.9
20260902132345 80 180 3.0 4.0 0.00 0.00 0.00 82 1016.9
20260902131845 79 176 3.0 4.0 0.00 0.00 0.00 84 1016.8
20260902131345 79 205 1.0 3.0 0.00 0.00 0.00 84 1016.8
20260902130845 78 293 0.0 3.0 0.00 0.00 0.00 85 1016.8
20260902130345 78 219 0.0 3.0 0.00 0.00 0.00 86 1016.9
20260902125845 77 194 1.0 3.0 0.00 0.00 0.00 86 1016.9
20260902125344 77 189 1.0 4.0 0.00 0.00 0.00 87 1016.9
20260902124844 76 190 1.0 5.0 0.00 0.00 0.00 88 1016.9
20260902124344 76 213 2.0 5.0 0.00 0.00 0.00 89 1016.9
20260902123843 75 210 2.0 3.0 0.00 0.00 0.00 89 1016.9
20260902123343 75 196 0.0 3.0 0.00 0.00 0.00 90 1016.9
20260902122843 74 199 2.0 3.0 0.00 0.00 0.00 91 1016.8
20260902121843 73 213 0.0 0.0 0.00 0.00 0.00 93 1016.6
20260902121343 72 213 0.0 0.0 0.00 0.00 0.00 94 1016.6
20260902120843 72 213 0.0 0.0 0.00 0.00 0.00 94 1016.6
20260902120342 71 213 0.0 0.0 0.00 0.00 0.00 94 1016.5
20260902115842 71 213 0.0 0.0 0.00 0.00 0.00 95 1016.5
20260902114842 70 213 0.0 0.0 0.00 0.00 0.00 96 1016.4
20260902114342 70 213 0.0 0.0 0.00 0.00 0.00 95 1016.3
20260902113842 69 213 0.0 0.0 0.00 0.00 0.00 95 1016.1
20260902113342 69 213 0.0 0.0 0.00 0.00 0.00 95 1016.1
20260902112841 70 213 0.0 0.0 0.00 0.00 0.00 95 1016.1
20260902112341 69 213 0.0 0.0 0.00 0.00 0.00 95 1015.9
20260902111841 69 213 0.0 0.0 0.00 0.00 0.00 95 1015.9
20260902111341 69 213 0.0 0.0 0.00 0.00 0.00 95 1015.8
20260902110841 69 213 0.0 0.0 0.00 0.00 0.00 95 1015.8
20260902110341 69 213 0.0 0.0 0.00 0.00 0.00 95 1015.7
20260902105340 70 213 0.0 0.0 0.00 0.00 0.00 95 1015.9
20260902104840 69 213 0.0 0.0 0.00 0.00 0.00 95 1015.7
20260902104340 70 213 0.0 0.0 0.00 0.00 0.00 95 1015.8
20260902103840 70 213 0.0 0.0 0.00 0.00 0.00 95 1015.9
20260902102840 70 213 0.0 0.0 0.00 0.00 0.00 95 1015.9
20260902102339 70 213 0.0 0.0 0.00 0.00 0.00 95 1015.8
20260902101839 70 213 0.0 0.0 0.00 0.00 0.00 95 1015.8
20260902100839 70 213 0.0 0.0 0.00 0.00 0.00 94 1015.9
20260902100339 70 213 0.0 0.0 0.00 0.00 0.00 94 1015.9
20260902095838 70 213 0.0 0.0 0.00 0.00 0.00 94 1015.9
20260902094838 70 213 0.0 0.0 0.00 0.00 0.00 95 1016.0
20260902093838 70 213 0.0 0.0 0.00 0.00 0.00 94 1015.9
20260902093338 70 213 0.0 0.0 0.00 0.00 0.00 94 1015.9
20260902092838 70 213 0.0 0.0 0.00 0.00 0.00 94 1015.9
20260902092338 70 213 0.0 0.0 0.00 0.00 0.00 94 1016.0
20260902091338 71 213 0.0 0.0 0.00 0.00 0.00 94 1016.0
20260902090837 71 213 0.0 0.0 0.00 0.00 0.00 94 1016.0
20260902090337 71 213 0.0 0.0 0.00 0.00 0.00 94 1016.0
20260902085837 71 213 0.0 0.0 0.00 0.00 0.00 94 1016.0
20260902085337 71 213 0.0 0.0 0.00 0.00 0.00 93 1015.9
20260902084837 71 213 0.0 0.0 0.00 0.00 0.00 93 1015.8
20260902083836 71 213 0.0 0.0 0.00 0.00 0.00 93 1015.7
20260902083336 71 213 0.0 0.0 0.00 0.00 0.00 93 1015.7
20260902082836 71 213 0.0 0.0 0.00 0.00 0.00 93 1015.5
20260902082336 71 213 0.0 0.0 0.00 0.00 0.00 93 1015.5
20260902081836 71 213 0.0 0.0 0.00 0.00 0.00 93 1015.5
20260902081336 71 213 0.0 0.0 0.00 0.00 0.00 92 1015.4
20260902080335 71 213 0.0 0.0 0.00 0.00 0.00 92 1015.3
20260902075835 72 213 0.0 0.0 0.00 0.00 0.00 92 1015.3
20260902075335 72 213 0.0 0.0 0.00 0.00 0.00 92 1015.5
20260902074835 72 213 0.0 0.0 0.00 0.00 0.00 91 1015.5
20260902073834 72 213 0.0 0.0 0.00 0.00 0.00 90 1015.5
20260902073335 73 213 0.0 0.0 0.00 0.00 0.00 90 1015.3
20260902072334 73 213 0.0 0.0 0.00 0.00 0.00 88 1015.3
20260902071834 74 213 0.0 0.0 0.00 0.00 0.00 87 1015.3
20260902071334 75 213 0.0 0.0 0.00 0.00 0.00 87 1015.5
20260902070834 74 213 0.0 0.0 0.00 0.00 0.00 88 1015.5
20260902065833 75 213 0.0 0.0 0.00 0.00 0.00 87 1015.5
20260902065333 75 213 0.0 2.0 0.00 0.00 0.00 86 1015.4
20260902064333 75 213 2.0 3.0 0.00 0.00 0.00 87 1015.7
20260902063833 75 213 0.0 0.0 0.00 0.00 0.00 88 1015.6
20260902063332 75 213 0.0 1.0 0.00 0.00 0.00 87 1015.6
20260902062832 75 213 0.0 2.0 0.00 0.00 0.00 87 1015.7
20260902062332 74 213 1.0 2.0 0.00 0.00 0.00 88 1015.7
20260902061832 75 211 0.0 1.0 0.00 0.00 0.00 87 1015.7
20260902061332 75 211 0.0 2.0 0.00 0.00 0.00 86 1015.7
20260902060832 76 217 0.0 2.0 0.00 0.00 0.00 86 1015.8
20260902060331 76 172 0.0 0.0 0.00 0.00 0.00 86 1015.8
20260902055832 76 196 0.0 2.0 0.00 0.00 0.00 86 1015.8
20260902055331 76 196 0.0 3.0 0.00 0.00 0.00 86 1015.8
20260902054331 76 238 0.0 0.0 0.00 0.00 0.00 85 1015.9
20260902053831 76 238 0.0 2.0 0.00 0.00 0.00 85 1015.8
20260902052830 77 217 1.0 3.0 0.00 0.00 0.00 84 1015.7
20260902052330 77 225 2.0 3.0 0.00 0.00 0.00 84 1015.7
20260902051330 77 207 0.0 2.0 0.00 0.00 0.00 84 1015.6
20260902050329 77 223 0.0 2.0 0.00 0.00 0.00 84 1015.7
20260902045830 77 229 0.0 3.0 0.00 0.00 0.00 84 1015.7
20260902044829 77 211 1.0 3.0 0.00 0.00 0.00 84 1015.5
20260902044329 77 211 1.0 3.0 0.00 0.00 0.00 84 1015.5
20260902043829 77 213 0.0 3.0 0.00 0.00 0.00 84 1015.5
20260902042829 77 203 2.0 3.0 0.00 0.00 0.00 86 1015.9
20260902042329 77 216 0.0 3.0 0.00 0.00 0.00 85 1015.9
20260902041828 77 216 2.0 3.0 0.00 0.00 0.00 85 1015.9
20260902041329 77 216 0.0 0.0 0.00 0.00 0.00 85 1015.9
20260902040328 77 216 0.0 0.0 0.00 0.00 0.00 85 1015.8
20260902035828 77 216 0.0 0.0 0.00 0.00 0.00 85 1015.6
20260902035328 77 216 0.0 0.0 0.00 0.00 0.00 85 1015.5
20260902034828 77 216 0.0 0.0 0.00 0.00 0.00 84 1015.5
20260902034327 78 216 0.0 0.0 0.00 0.00 0.00 84 1015.7
20260902033827 78 216 0.0 0.0 0.00 0.00 0.00 84 1015.7
20260902033327 78 216 0.0 3.0 0.00 0.00 0.00 84 1015.8
20260902032827 78 216 0.0 3.0 0.00 0.00 0.00 84 1015.8
20260902031827 79 217 3.0 4.0 0.00 0.00 0.00 83 1015.8
20260902031326 79 221 0.0 3.0 0.00 0.00 0.00 83 1015.6
20260902030827 79 238 2.0 3.0 0.00 0.00 0.00 83 1015.7
20260902025826 79 217 1.0 3.0 0.00 0.00 0.00 82 1015.8
20260902024825 80 198 1.0 5.0 0.00 0.00 0.00 81 1015.8
20260902023825 80 195 2.0 4.0 0.00 0.00 0.00 81 1015.8
20260902023325 80 223 1.0 4.0 0.00 0.00 0.00 81 1015.8
20260902022825 80 215 1.0 4.0 0.00 0.00 0.00 81 1015.8
20260902022325 80 217 2.0 4.0 0.00 0.00 0.00 82 1015.7
20260902021825 80 233 2.0 5.0 0.00 0.00 0.00 82 1015.8
20260902021324 80 257 2.0 5.0 0.00 0.00 0.00 82 1015.8
20260902020324 80 204 3.0 4.0 0.00 0.00 0.00 82 1015.7
20260902015824 80 211 1.0 3.0 0.00 0.00 0.00 82 1015.6
20260902015324 80 209 0.0 3.0 0.00 0.00 0.00 82 1015.5
20260902014824 80 215 0.0 3.0 0.00 0.00 0.00 82 1015.5
20260902014324 80 211 0.0 4.0 0.00 0.00 0.00 82 1015.3
20260902013823 80 207 2.0 4.0 0.00 0.00 0.00 82 1015.4
20260902013323 80 207 1.0 3.0 0.00 0.00 0.00 82 1015.4
20260902012323 81 217 1.0 3.0 0.00 0.00 0.00 81 1015.1
20260902011823 81 243 1.0 3.0 0.00 0.00 0.00 81 1015.1
20260902011322 81 232 1.0 3.0 0.00 0.00 0.00 81 1015.1
20260902010823 82 239 1.0 5.0 0.00 0.00 0.00 80 1015.1
20260902010352 82 197 1.0 5.0 0.00 0.00 0.00 80 1015.0
20260902005822 82 219 2.0 5.0 0.00 0.00 0.00 80 1014.8
20260902005322 81 263 3.0 4.0 0.00 0.00 0.00 81 1014.7
20260902004822 81 208 2.0 4.0 0.00 0.00 0.00 81 1014.7
20260902004322 81 210 1.0 4.0 0.00 0.00 0.00 82 1014.8
20260902003822 81 219 3.0 4.0 0.00 0.00 0.00 82 1014.8
20260902003322 81 209 1.0 4.0 0.00 0.00 0.00 82 1014.7
20260902002821 81 206 2.0 3.0 0.00 0.00 0.00 83 1014.8
20260902001321 81 192 2.0 3.0 0.00 0.00 0.00 83 1015.0
20260902000322 82 192 1.0 2.0 0.00 0.00 0.00 84 1015.0
20260901235820 83 192 0.0 3.0 0.00 0.00 0.00 83 1015.0
20260901235320 83 192 0.0 3.0 0.00 0.00 0.00 81 1015.0
20260901234820 84 211 2.0 3.0 0.00 0.00 0.00 80 1015.0
20260901234320 84 211 1.0 3.0 0.00 0.00 0.00 79 1015.1
20260901233820 85 207 1.0 3.0 0.00 0.00 0.00 77 1015.1
20260901233350 85 198 2.0 3.0 0.00 0.00 0.00 77 1015.3
20260901232849 86 199 2.0 3.0 0.00 0.00 0.00 76 1015.6
20260901231349 87 198 0.0 4.0 0.00 0.00 0.00 72 1015.3
20260901230849 87 200 2.0 5.0 0.00 0.00 0.00 71 1015.3
20260901230349 88 207 0.0 5.0 0.00 0.00 0.00 70 1015.4
20260901225349 88 210 4.0 7.0 0.00 0.00 0.00 70 1015.4
20260901224848 89 233 5.0 7.0 0.00 0.00 0.00 70 1015.5
20260901223848 89 231 3.0 7.0 0.00 0.00 0.00 70 1015.4
20260901222848 89 211 3.0 9.0 0.00 0.00 0.00 68 1015.1
20260901222348 90 239 4.0 7.0 0.00 0.00 0.00 68 1015.1
20260901221847 89 215 4.0 7.0 0.00 0.00 0.00 66 1015.1
20260901221347 89 209 5.0 9.0 0.00 0.00 0.00 67 1015.2
20260901220847 90 207 4.0 9.0 0.00 0.00 0.00 67 1015.3
20260901220347 90 196 6.0 10.0 0.00 0.00 0.00 67 1015.3
20260901215847 90 209 4.0 10.0 0.00 0.00 0.00 66 1015.3
20260901215346 90 201 2.0 9.0 0.00 0.00 0.00 66 1015.3
20260901214846 90 220 9.0 9.0 0.00 0.00 0.00 66 1015.4
20260901214347 90 225 1.0 7.0 0.00 0.00 0.00 66 1015.3
20260901213846 90 211 2.0 9.0 0.00 0.00 0.00 66 1015.3
20260901213347 90 229 4.0 9.0 0.00 0.00 0.00 64 1015.3
20260901212846 91 157 2.0 9.0 0.00 0.00 0.00 62 1015.4
20260901211345 90 228 5.0 11.0 0.00 0.00 0.00 64 1015.5
20260901210845 90 221 3.0 7.0 0.00 0.00 0.00 64 1015.5
20260901205345 90 250 4.0 10.0 0.00 0.00 0.00 65 1015.5
20260901204844 91 202 4.0 10.0 0.00 0.00 0.00 63 1015.6
20260901203844 91 189 4.0 12.0 0.00 0.00 0.00 62 1015.6
20260901203344 92 273 5.0 10.0 0.00 0.00 0.00 62 1015.5
20260901202844 91 211 6.0 10.0 0.00 0.00 0.00 62 1015.6
20260901201843 91 187 5.0 13.0 0.00 0.00 0.00 63 1015.6
20260901201343 91 192 6.0 13.0 0.00 0.00 0.00 63 1015.6
20260901200843 91 214 4.0 12.0 0.00 0.00 0.00 65 1015.6
20260901200343 91 220 4.0 12.0 0.00 0.00 0.00 65 1015.7
20260901195343 91 209 5.0 14.0 0.00 0.00 0.00 64 1015.7
20260901194342 92 217 11.0 13.0 0.00 0.00 0.00 63 1015.8
20260901193843 92 188 6.0 12.0 0.00 0.00 0.00 64 1015.8
20260901193342 91 179 4.0 12.0 0.00 0.00 0.00 64 1015.9
20260901192842 91 240 5.0 11.0 0.00 0.00 0.00 63 1015.7
20260901192342 92 194 4.0 10.0 0.00 0.00 0.00 64 1015.8
20260901191842 91 153 2.0 15.0 0.00 0.00 0.00 65 1015.8
20260901191341 91 185 4.0 15.0 0.00 0.00 0.00 65 1016.1
20260901190341 91 183 6.0 14.0 0.00 0.00 0.00 65 1016.0
20260901185341 91 200 6.0 15.0 0.00 0.00 0.00 63 1015.9
20260901184841 91 185 4.0 12.0 0.00 0.00 0.00 66 1015.9
20260901184340 91 174 2.0 15.0 0.00 0.00 0.00 65 1015.9
20260901183841 91 199 7.0 15.0 0.00 0.00 0.00 65 1015.9
20260901183340 91 184 4.0 15.0 0.00 0.00 0.00 64 1016.0
20260901182840 90 197 4.0 15.0 0.00 0.00 0.00 65 1015.9
20260901182340 90 239 8.0 15.0 0.00 0.00 0.00 66 1016.0
20260901181840 90 211 9.0 15.0 0.00 0.00 0.00 65 1016.0
20260901180839 90 172 3.0 13.0 0.00 0.00 0.00 66 1016.1
20260901175839 90 211 4.0 13.0 0.00 0.00 0.00 65 1016.4
20260901175339 90 213 5.0 13.0 0.00 0.00 0.00 66 1016.4
20260901174839 90 184 11.0 13.0 0.00 0.00 0.00 67 1016.3
20260901174339 90 197 7.0 11.0 0.00 0.00 0.00 66 1016.3
20260901173839 90 176 2.0 15.0 0.00 0.00 0.00 66 1016.2
20260901173338 90 226 2.0 15.0 0.00 0.00 0.00 67 1016.3
20260901172839 90 189 14.0 14.0 0.00 0.00 0.00 65 1016.3
20260901171838 89 184 6.0 13.0 0.00 0.00 0.00 66 1016.4
20260901171338 90 188 7.0 13.0 0.00 0.00 0.00 67 1016.5
20260901170838 89 183 8.0 9.0 0.00 0.00 0.00 68 1016.6
20260901170338 89 202 5.0 12.0 0.00 0.00 0.00 68 1016.6
20260901165837 89 178 3.0 12.0 0.00 0.00 0.00 67 1016.8
20260901165337 89 193 4.0 9.0 0.00 0.00 0.00 69 1016.9
20260901164837 89 229 3.0 9.0 0.00 0.00 0.00 69 1017.0